[sarex] 2 Line ISS Keps 9-30

Dave Larsen PhD doc at volcano.net
Fri Sep 29 20:24:08 PDT 2006


ISS
1 25544U 98067A   06272.97225694  .00062462  00000-0  38548-3 0  7686
2 25544 051.6375 007.6764 0013198 038.8477 300.2048 15.76416158449680


More information about the SAREX mailing list